Time,TemperatureF,DewpointF,PressureIn,WindDirection,WindDirectionDegrees,WindSpeedMPH,WindSpeedGustMPH,Humidity,HourlyPrecipIn,Conditions,Clouds,dailyrainin,SoftwareType,DateUTC
2013-08-29 00:09:00,55.8,-99.9,-100.00,WSW,240,7.0,-999.0,-999,0.00,,,-99.99,Home Grown,2013-08-28 23:09:00,
2013-08-29 00:14:00,55.8,-99.9,-100.00,WSW,240,7.0,-999.0,-999,0.00,,,-99.99,Home Grown,2013-08-28 23:14:00,
2013-08-29 00:19:00,55.8,-99.9,-100.00,WSW,240,7.0,-999.0,-999,0.00,,,-99.99,Home Grown,2013-08-28 23:19:00,
2013-08-29 00:24:00,55.8,-99.9,-100.00,WSW,240,7.0,-999.0,-999,0.00,,,-99.99,Home Grown,2013-08-28 23:24:00,
2013-08-29 00:29:00,55.8,-99.9,-100.00,WSW,240,7.0,-999.0,-999,0.00,,,-99.99,Home Grown,2013-08-28 23:29:00,
2013-08-29 00:34:00,55.8,-99.9,-100.00,WSW,240,7.0,-999.0,-999,0.00,,,-99.99,Home Grown,2013-08-28 23:34:00,
2013-08-29 00:39:00,56.1,-99.9,-100.00,WSW,240,7.0,-999.0,-999,0.00,,,-99.99,Home Grown,2013-08-28 23:39:00,
2013-08-29 00:44:00,56.1,-99.9,-100.00,WSW,240,8.0,-999.0,-999,0.00,,,-99.99,Home Grown,2013-08-28 23:44:00,
2013-08-29 00:49:00,56.3,-99.9,-100.00,WSW,240,5.0,-999.0,-999,0.00,,,-99.99,Home Grown,2013-08-28 23:49:00,
2013-08-29 00:54:00,56.5,-99.9,-100.00,WSW,240,6.0,-999.0,-999,0.00,,,-99.99,Home Grown,2013-08-28 23:54:00,
2013-08-29 00:59:00,56.5,-99.9,-100.00,WSW,240,5.0,-999.0,-999,0.00,,,-99.99,Home Grown,2013-08-28 23:59:00,
2013-08-29 01:04:00,56.5,-99.9,-100.00,WSW,240,6.0,-999.0,-999,0.00,,,-99.99,Home Grown,2013-08-29 00:04:00,
2013-08-29 01:09:00,56.7,-99.9,-100.00,WSW,240,6.0,-999.0,-999,0.00,,,-99.99,Home Grown,2013-08-29 00:09:00,
2013-08-29 01:14:00,56.7,-99.9,-100.00,WSW,240,6.0,-999.0,-999,0.00,,,-99.99,Home Grown,2013-08-29 00:14:00,
2013-08-29 01:19:00,56.8,-99.9,-100.00,WSW,240,7.0,-999.0,-999,0.00,,,-99.99,Home Grown,2013-08-29 00:19:00,
2013-08-29 01:24:00,56.8,-99.9,-100.00,WSW,240,7.0,-999.0,-999,0.00,,,-99.99,Home Grown,2013-08-29 00:24:00,
2013-08-29 01:29:00,56.8,-99.9,-100.00,WSW,240,7.0,-999.0,-999,0.00,,,-99.99,Home Grown,2013-08-29 00:29:00,
2013-08-29 01:34:00,56.8,-99.9,-100.00,WSW,240,5.0,-999.0,-999,0.00,,,-99.99,Home Grown,2013-08-29 00:34:00,
2013-08-29 01:39:00,56.8,-99.9,-100.00,WSW,240,5.0,-999.0,-999,0.00,,,-99.99,Home Grown,2013-08-29 00:39:00,
2013-08-29 01:44:00,56.8,-99.9,-100.00,WSW,240,7.0,-999.0,-999,0.00,,,-99.99,Home Grown,2013-08-29 00:44:00,
2013-08-29 01:49:00,56.8,-99.9,-100.00,WSW,240,7.0,-999.0,-999,0.00,,,-99.99,Home Grown,2013-08-29 00:49:00,
2013-08-29 01:54:00,57.0,-99.9,-100.00,WSW,240,8.0,-999.0,-999,0.00,,,-99.99,Home Grown,2013-08-29 00:54:00,
2013-08-29 01:59:00,57.0,-99.9,-100.00,WSW,240,8.0,-999.0,-999,0.00,,,-99.99,Home Grown,2013-08-29 00:59:00,
2013-08-29 02:04:00,57.2,-99.9,-100.00,WSW,240,8.0,-999.0,-999,0.00,,,-99.99,Home Grown,2013-08-29 01:04:00,
2013-08-29 02:09:00,57.2,-99.9,-100.00,WSW,240,7.0,-999.0,-999,0.00,,,-99.99,Home Grown,2013-08-29 01:09:00,
2013-08-29 02:14:00,57.4,-99.9,-100.00,WSW,240,7.0,-999.0,-999,0.00,,,-99.99,Home Grown,2013-08-29 01:14:00,
2013-08-29 02:19:00,57.4,-99.9,-100.00,WSW,240,6.0,-999.0,-999,0.00,,,-99.99,Home Grown,2013-08-29 01:19:00,
2013-08-29 02:24:00,57.4,-99.9,-100.00,WSW,240,6.0,-999.0,-999,0.00,,,-99.99,Home Grown,2013-08-29 01:24:00,
2013-08-29 02:29:00,57.4,-99.9,-100.00,WSW,240,7.0,-999.0,-999,0.00,,,-99.99,Home Grown,2013-08-29 01:29:00,
2013-08-29 02:34:00,57.4,-99.9,-100.00,WSW,240,7.0,-999.0,-999,0.00,,,-99.99,Home Grown,2013-08-29 01:34:00,
2013-08-29 02:39:00,57.2,-99.9,-100.00,WSW,240,7.0,-999.0,-999,0.00,,,-99.99,Home Grown,2013-08-29 01:39:00,
2013-08-29 02:44:00,57.2,-99.9,-100.00,WSW,240,8.0,-999.0,-999,0.00,,,-99.99,Home Grown,2013-08-29 01:44:00,
2013-08-29 02:49:00,57.2,-99.9,-100.00,WSW,240,8.0,-999.0,-999,0.00,,,-99.99,Home Grown,2013-08-29 01:49:00,
2013-08-29 02:54:00,57.2,-99.9,-100.00,WSW,240,8.0,-999.0,-999,0.00,,,-99.99,Home Grown,2013-08-29 01:54:00,
2013-08-29 02:59:00,57.0,-99.9,-100.00,WSW,240,8.0,-999.0,-999,0.00,,,-99.99,Home Grown,2013-08-29 01:59:00,
2013-08-29 03:04:00,57.2,-99.9,-100.00,WSW,240,8.0,-999.0,-999,0.00,,,-99.99,Home Grown,2013-08-29 02:04:00,
2013-08-29 03:09:00,57.2,-99.9,-100.00,WSW,240,7.0,-999.0,-999,0.00,,,-99.99,Home Grown,2013-08-29 02:09:00,
2013-08-29 03:14:00,57.2,-99.9,-100.00,WSW,240,8.0,-999.0,-999,0.00,,,-99.99,Home Grown,2013-08-29 02:14:00,
2013-08-29 03:19:00,57.2,-99.9,-100.00,WSW,240,8.0,-999.0,-999,0.00,,,-99.99,Home Grown,2013-08-29 02:19:00,
2013-08-29 03:24:00,57.2,-99.9,-100.00,WSW,240,8.0,-999.0,-999,0.00,,,-99.99,Home Grown,2013-08-29 02:24:00,
2013-08-29 03:29:00,57.2,-99.9,-100.00,WSW,240,8.0,-999.0,-999,0.00,,,-99.99,Home Grown,2013-08-29 02:29:00,
2013-08-29 03:34:00,57.0,-99.9,-100.00,WSW,240,7.0,-999.0,-999,0.00,,,-99.99,Home Grown,2013-08-29 02:34:00,
2013-08-29 03:39:00,57.2,-99.9,-100.00,WSW,240,7.0,-999.0,-999,0.00,,,-99.99,Home Grown,2013-08-29 02:39:00,
2013-08-29 03:44:00,57.4,-99.9,-100.00,WSW,240,9.0,-999.0,-999,0.00,,,-99.99,Home Grown,2013-08-29 02:44:00,
2013-08-29 03:49:00,57.4,-99.9,-100.00,WSW,240,9.0,-999.0,-999,0.00,,,-99.99,Home Grown,2013-08-29 02:49:00,
2013-08-29 03:54:00,57.6,-99.9,-100.00,WSW,240,9.0,-999.0,-999,0.00,,,-99.99,Home Grown,2013-08-29 02:54:00,
2013-08-29 03:59:00,57.6,-99.9,-100.00,WSW,240,10.0,-999.0,-999,0.00,,,-99.99,Home Grown,2013-08-29 02:59:00,
2013-08-29 04:04:00,57.6,-99.9,-100.00,WSW,240,8.0,-999.0,-999,0.00,,,-99.99,Home Grown,2013-08-29 03:04:00,
2013-08-29 04:09:00,57.6,-99.9,-100.00,WSW,240,9.0,-999.0,-999,0.00,,,-99.99,Home Grown,2013-08-29 03:09:00,
2013-08-29 04:14:00,57.6,-99.9,-100.00,WSW,240,9.0,-999.0,-999,0.00,,,-99.99,Home Grown,2013-08-29 03:14:00,
2013-08-29 04:19:00,57.6,-99.9,-100.00,WSW,240,9.0,-999.0,-999,0.00,,,-99.99,Home Grown,2013-08-29 03:19:00,
2013-08-29 04:24:00,57.6,-99.9,-100.00,WSW,240,9.0,-999.0,-999,0.00,,,-99.99,Home Grown,2013-08-29 03:24:00,
2013-08-29 04:29:00,57.6,-99.9,-100.00,WSW,240,9.0,-999.0,-999,0.00,,,-99.99,Home Grown,2013-08-29 03:29:00,
2013-08-29 04:34:00,57.6,-99.9,-100.00,WSW,240,9.0,-999.0,-999,0.00,,,-99.99,Home Grown,2013-08-29 03:34:00,
2013-08-29 04:39:00,57.7,-99.9,-100.00,WSW,240,10.0,-999.0,-999,0.00,,,-99.99,Home Grown,2013-08-29 03:39:00,
2013-08-29 04:44:00,57.9,-99.9,-100.00,WSW,240,10.0,-999.0,-999,0.00,,,-99.99,Home Grown,2013-08-29 03:44:00,
2013-08-29 04:49:00,57.9,-99.9,-100.00,WSW,240,9.0,-999.0,-999,0.00,,,-99.99,Home Grown,2013-08-29 03:49:00,
2013-08-29 04:54:00,57.9,-99.9,-100.00,WSW,240,10.0,-999.0,-999,0.00,,,-99.99,Home Grown,2013-08-29 03:54:00,
2013-08-29 04:59:00,57.9,-99.9,-100.00,WSW,240,9.0,-999.0,-999,0.00,,,-99.99,Home Grown,2013-08-29 03:59:00,
2013-08-29 05:04:00,58.1,-99.9,-100.00,WSW,240,9.0,-999.0,-999,0.00,,,-99.99,Home Grown,2013-08-29 04:04:00,
2013-08-29 05:09:00,58.1,-99.9,-100.00,WSW,240,8.0,-999.0,-999,0.00,,,-99.99,Home Grown,2013-08-29 04:09:00,
2013-08-29 05:14:00,58.3,-99.9,-100.00,WSW,240,9.0,-999.0,-999,0.00,,,-99.99,Home Grown,2013-08-29 04:14:00,
2013-08-29 05:19:00,58.3,-99.9,-100.00,WSW,240,9.0,-999.0,-999,0.00,,,-99.99,Home Grown,2013-08-29 04:19:00,
2013-08-29 05:24:00,58.3,-99.9,-100.00,WSW,240,9.0,-999.0,-999,0.00,,,-99.99,Home Grown,2013-08-29 04:24:00,
2013-08-29 05:29:00,58.3,-99.9,-100.00,WSW,240,9.0,-999.0,-999,0.00,,,-99.99,Home Grown,2013-08-29 04:29:00,
2013-08-29 05:34:00,58.3,-99.9,-100.00,WSW,240,10.0,-999.0,-999,0.00,,,-99.99,Home Grown,2013-08-29 04:34:00,
2013-08-29 05:39:00,58.1,-99.9,-100.00,WSW,240,10.0,-999.0,-999,0.00,,,-99.99,Home Grown,2013-08-29 04:39:00,
2013-08-29 05:44:00,58.1,-99.9,-100.00,WSW,240,9.0,-999.0,-999,0.00,,,-99.99,Home Grown,2013-08-29 04:44:00,
2013-08-29 05:49:00,58.1,-99.9,-100.00,WSW,240,9.0,-999.0,-999,0.00,,,-99.99,Home Grown,2013-08-29 04:49:00,
2013-08-29 05:54:00,57.9,-99.9,-100.00,WSW,240,9.0,-999.0,-999,0.00,,,-99.99,Home Grown,2013-08-29 04:54:00,
2013-08-29 05:59:00,57.9,-99.9,-100.00,WSW,240,10.0,-999.0,-999,0.00,,,-99.99,Home Grown,2013-08-29 04:59:00,
2013-08-29 06:04:00,57.9,-99.9,-100.00,WSW,240,9.0,-999.0,-999,0.00,,,-99.99,Home Grown,2013-08-29 05:04:00,
2013-08-29 06:09:00,57.7,-99.9,-100.00,WSW,240,9.0,-999.0,-999,0.00,,,-99.99,Home Grown,2013-08-29 05:09:00,
2013-08-29 06:14:00,57.9,-99.9,-100.00,WSW,240,9.0,-999.0,-999,0.00,,,-99.99,Home Grown,2013-08-29 05:14:00,
2013-08-29 06:19:00,57.7,-99.9,-100.00,WSW,240,8.0,-999.0,-999,0.00,,,-99.99,Home Grown,2013-08-29 05:19:00,
2013-08-29 06:24:00,57.7,-99.9,-100.00,WSW,240,8.0,-999.0,-999,0.00,,,-99.99,Home Grown,2013-08-29 05:24:00,
2013-08-29 06:29:00,57.7,-99.9,-100.00,WSW,240,8.0,-999.0,-999,0.00,,,-99.99,Home Grown,2013-08-29 05:29:00,
2013-08-29 06:34:00,57.7,-99.9,-100.00,WSW,240,8.0,-999.0,-999,0.00,,,-99.99,Home Grown,2013-08-29 05:34:00,
2013-08-29 06:39:00,57.6,-99.9,-100.00,WSW,240,8.0,-999.0,-999,0.00,,,-99.99,Home Grown,2013-08-29 05:39:00,
2013-08-29 06:44:00,57.7,-99.9,-100.00,WSW,240,8.0,-999.0,-999,0.00,,,-99.99,Home Grown,2013-08-29 05:44:00,
2013-08-29 06:49:00,57.6,-99.9,-100.00,WSW,240,9.0,-999.0,-999,0.00,,,-99.99,Home Grown,2013-08-29 05:49:00,
2013-08-29 06:54:00,57.7,-99.9,-100.00,WSW,240,8.0,-999.0,-999,0.00,,,-99.99,Home Grown,2013-08-29 05:54:00,
2013-08-29 06:59:00,57.7,-99.9,-100.00,WSW,240,8.0,-999.0,-999,0.00,,,-99.99,Home Grown,2013-08-29 05:59:00,
2013-08-29 07:04:00,57.9,-99.9,-100.00,WSW,240,8.0,-999.0,-999,0.00,,,-99.99,Home Grown,2013-08-29 06:04:00,
2013-08-29 07:09:00,57.9,-99.9,-100.00,WSW,240,8.0,-999.0,-999,0.00,,,-99.99,Home Grown,2013-08-29 06:09:00,
2013-08-29 07:14:00,57.9,-99.9,-100.00,WSW,240,8.0,-999.0,-999,0.00,,,-99.99,Home Grown,2013-08-29 06:14:00,
2013-08-29 07:19:00,57.9,-99.9,-100.00,WSW,240,9.0,-999.0,-999,0.00,,,-99.99,Home Grown,2013-08-29 06:19:00,
2013-08-29 07:24:00,57.9,-99.9,-100.00,WSW,240,9.0,-999.0,-999,0.00,,,-99.99,Home Grown,2013-08-29 06:24:00,
2013-08-29 07:29:00,57.9,-99.9,-100.00,WSW,240,8.0,-999.0,-999,0.00,,,-99.99,Home Grown,2013-08-29 06:29:00,
2013-08-29 07:39:00,58.1,-99.9,-100.00,WSW,240,8.0,-999.0,-999,0.00,,,-99.99,Home Grown,2013-08-29 06:39:00,
2013-08-29 07:44:00,58.1,-99.9,-100.00,WSW,240,7.0,-999.0,-999,0.00,,,-99.99,Home Grown,2013-08-29 06:44:00,
2013-08-29 07:49:00,58.3,-99.9,-100.00,WSW,240,7.0,-999.0,-999,0.00,,,-99.99,Home Grown,2013-08-29 06:49:00,
2013-08-29 07:54:00,58.3,-99.9,-100.00,WSW,240,8.0,-999.0,-999,0.00,,,-99.99,Home Grown,2013-08-29 06:54:00,
2013-08-29 07:59:00,58.3,-99.9,-100.00,WSW,240,7.0,-999.0,-999,0.00,,,-99.99,Home Grown,2013-08-29 06:59:00,
2013-08-29 08:04:00,58.3,-99.9,-100.00,WSW,240,8.0,-999.0,-999,0.00,,,-99.99,Home Grown,2013-08-29 07:04:00,
2013-08-29 08:09:00,58.3,-99.9,-100.00,WSW,240,7.0,-999.0,-999,0.00,,,-99.99,Home Grown,2013-08-29 07:09:00,
2013-08-29 08:14:00,58.5,-99.9,-100.00,WSW,240,7.0,-999.0,-999,0.00,,,-99.99,Home Grown,2013-08-29 07:14:00,
2013-08-29 08:19:00,58.6,-99.9,-100.00,WSW,240,8.0,-999.0,-999,0.00,,,-99.99,Home Grown,2013-08-29 07:19:00,
2013-08-29 08:24:00,58.6,-99.9,-100.00,WSW,240,8.0,-999.0,-999,0.00,,,-99.99,Home Grown,2013-08-29 07:24:00,
2013-08-29 08:29:00,58.6,-99.9,-100.00,WSW,240,7.0,-999.0,-999,0.00,,,-99.99,Home Grown,2013-08-29 07:29:00,
2013-08-29 08:34:00,58.6,-99.9,-100.00,WSW,240,8.0,-999.0,-999,0.00,,,-99.99,Home Grown,2013-08-29 07:34:00,
2013-08-29 08:39:00,58.8,-99.9,-100.00,WSW,240,9.0,-999.0,-999,0.00,,,-99.99,Home Grown,2013-08-29 07:39:00,
2013-08-29 08:44:00,59.0,-99.9,-100.00,WSW,240,7.0,-999.0,-999,0.00,,,-99.99,Home Grown,2013-08-29 07:44:00,
2013-08-29 08:49:00,59.2,-99.9,-100.00,WSW,240,7.0,-999.0,-999,0.00,,,-99.99,Home Grown,2013-08-29 07:49:00,
2013-08-29 08:54:00,59.4,-99.9,-100.00,WSW,240,6.0,-999.0,-999,0.00,,,-99.99,Home Grown,2013-08-29 07:54:00,
2013-08-29 08:59:00,59.2,-99.9,-100.00,WSW,240,8.0,-999.0,-999,0.00,,,-99.99,Home Grown,2013-08-29 07:59:00,
2013-08-29 09:04:00,59.4,-99.9,-100.00,WSW,240,6.0,-999.0,-999,0.00,,,-99.99,Home Grown,2013-08-29 08:04:00,
2013-08-29 09:09:00,59.4,-99.9,-100.00,WSW,240,9.0,-999.0,-999,0.00,,,-99.99,Home Grown,2013-08-29 08:09:00,
2013-08-29 09:14:00,59.7,-99.9,-100.00,WSW,240,8.0,-999.0,-999,0.00,,,-99.99,Home Grown,2013-08-29 08:14:00,
2013-08-29 09:19:00,59.9,-99.9,-100.00,WSW,240,9.0,-999.0,-999,0.00,,,-99.99,Home Grown,2013-08-29 08:19:00,
2013-08-29 09:24:00,60.1,-99.9,-100.00,WSW,240,9.0,-999.0,-999,0.00,,,-99.99,Home Grown,2013-08-29 08:24:00,
2013-08-29 09:29:00,60.4,-99.9,-100.00,WSW,240,10.0,-999.0,-999,0.00,,,-99.99,Home Grown,2013-08-29 08:29:00,
2013-08-29 09:34:00,60.6,-99.9,-100.00,WSW,240,11.0,-999.0,-999,0.00,,,-99.99,Home Grown,2013-08-29 08:34:00,
2013-08-29 09:39:00,60.8,-99.9,-100.00,WSW,240,9.0,-999.0,-999,0.00,,,-99.99,Home Grown,2013-08-29 08:39:00,
2013-08-29 09:44:00,61.0,-99.9,-100.00,WSW,240,9.0,-999.0,-999,0.00,,,-99.99,Home Grown,2013-08-29 08:44:00,
2013-08-29 09:49:00,61.2,-99.9,-100.00,WSW,240,9.0,-999.0,-999,0.00,,,-99.99,Home Grown,2013-08-29 08:49:00,
2013-08-29 09:54:00,61.9,-99.9,-100.00,WSW,240,8.0,-999.0,-999,0.00,,,-99.99,Home Grown,2013-08-29 08:54:00,
2013-08-29 09:59:00,61.9,-99.9,-100.00,WSW,240,9.0,-999.0,-999,0.00,,,-99.99,Home Grown,2013-08-29 08:59:00,
2013-08-29 10:04:00,61.5,-99.9,-100.00,WSW,240,10.0,-999.0,-999,0.00,,,-99.99,Home Grown,2013-08-29 09:04:00,
2013-08-29 10:09:00,61.2,-99.9,-100.00,WSW,240,11.0,-999.0,-999,0.00,,,-99.99,Home Grown,2013-08-29 09:09:00,
2013-08-29 10:14:00,61.2,-99.9,-100.00,WSW,240,9.0,-999.0,-999,0.00,,,-99.99,Home Grown,2013-08-29 09:14:00,
2013-08-29 10:19:00,61.2,-99.9,-100.00,WSW,240,9.0,-999.0,-999,0.00,,,-99.99,Home Grown,2013-08-29 09:19:00,
2013-08-29 10:24:00,61.2,-99.9,-100.00,WSW,240,7.0,-999.0,-999,0.00,,,-99.99,Home Grown,2013-08-29 09:24:00,
2013-08-29 10:29:00,61.0,-99.9,-100.00,WSW,240,8.0,-999.0,-999,0.00,,,-99.99,Home Grown,2013-08-29 09:29:00,
2013-08-29 10:34:00,60.8,-99.9,-100.00,WSW,240,8.0,-999.0,-999,0.00,,,-99.99,Home Grown,2013-08-29 09:34:00,
2013-08-29 10:39:00,61.0,-99.9,-100.00,WSW,240,11.0,-999.0,-999,0.00,,,-99.99,Home Grown,2013-08-29 09:39:00,
2013-08-29 10:44:00,61.2,-99.9,-100.00,WSW,240,10.0,-999.0,-999,0.00,,,-99.99,Home Grown,2013-08-29 09:44:00,
2013-08-29 10:49:00,61.5,-99.9,-100.00,WSW,240,10.0,-999.0,-999,0.00,,,-99.99,Home Grown,2013-08-29 09:49:00,
2013-08-29 10:54:00,61.7,-99.9,-100.00,WSW,240,9.0,-999.0,-999,0.00,,,-99.99,Home Grown,2013-08-29 09:54:00,
2013-08-29 10:59:00,61.7,-99.9,-100.00,WSW,240,10.0,-999.0,-999,0.00,,,-99.99,Home Grown,2013-08-29 09:59:00,
2013-08-29 11:04:00,61.5,-99.9,-100.00,WSW,240,11.0,-999.0,-999,0.00,,,-99.99,Home Grown,2013-08-29 10:04:00,
2013-08-29 11:09:00,61.9,-99.9,-100.00,WSW,240,11.0,-999.0,-999,0.00,,,-99.99,Home Grown,2013-08-29 10:09:00,
2013-08-29 11:14:00,62.2,-99.9,-100.00,WSW,240,9.0,-999.0,-999,0.00,,,-99.99,Home Grown,2013-08-29 10:14:00,
2013-08-29 11:19:00,62.6,-99.9,-100.00,WSW,240,9.0,-999.0,-999,0.00,,,-99.99,Home Grown,2013-08-29 10:19:00,
2013-08-29 11:24:00,62.6,-99.9,-100.00,WSW,240,11.0,-999.0,-999,0.00,,,-99.99,Home Grown,2013-08-29 10:24:00,
2013-08-29 11:29:00,62.8,-99.9,-100.00,WSW,240,12.0,-999.0,-999,0.00,,,-99.99,Home Grown,2013-08-29 10:29:00,
2013-08-29 11:34:00,63.3,-99.9,-100.00,WSW,240,12.0,-999.0,-999,0.00,,,-99.99,Home Grown,2013-08-29 10:34:00,
2013-08-29 11:39:00,62.8,-99.9,-100.00,WSW,240,12.0,-999.0,-999,0.00,,,-99.99,Home Grown,2013-08-29 10:39:00,
2013-08-29 11:44:00,63.0,-99.9,-100.00,WSW,240,11.0,-999.0,-999,0.00,,,-99.99,Home Grown,2013-08-29 10:44:00,
2013-08-29 11:49:00,63.5,-99.9,-100.00,WSW,240,10.0,-999.0,-999,0.00,,,-99.99,Home Grown,2013-08-29 10:49:00,
2013-08-29 11:54:00,63.3,-99.9,-100.00,WSW,240,12.0,-999.0,-999,0.00,,,-99.99,Home Grown,2013-08-29 10:54:00,
2013-08-29 11:59:00,63.0,-99.9,-100.00,WSW,240,12.0,-999.0,-999,0.00,,,-99.99,Home Grown,2013-08-29 10:59:00,
2013-08-29 12:04:00,63.3,-99.9,-100.00,WSW,240,11.0,-999.0,-999,0.00,,,-99.99,Home Grown,2013-08-29 11:04:00,
2013-08-29 12:09:00,63.5,-99.9,-100.00,WSW,240,9.0,-999.0,-999,0.00,,,-99.99,Home Grown,2013-08-29 11:09:00,
2013-08-29 12:14:00,63.3,-99.9,-100.00,WSW,240,10.0,-999.0,-999,0.00,,,-99.99,Home Grown,2013-08-29 11:14:00,
2013-08-29 12:19:00,63.3,-99.9,-100.00,WSW,240,11.0,-999.0,-999,0.00,,,-99.99,Home Grown,2013-08-29 11:19:00,
2013-08-29 12:24:00,63.5,-99.9,-100.00,WSW,240,13.0,-999.0,-999,0.00,,,-99.99,Home Grown,2013-08-29 11:24:00,
2013-08-29 12:29:00,63.3,-99.9,-100.00,WSW,240,10.0,-999.0,-999,0.00,,,-99.99,Home Grown,2013-08-29 11:29:00,
2013-08-29 12:34:00,63.7,-99.9,-100.00,WSW,240,9.0,-999.0,-999,0.00,,,-99.99,Home Grown,2013-08-29 11:34:00,
2013-08-29 12:39:00,63.9,-99.9,-100.00,WSW,240,9.0,-999.0,-999,0.00,,,-99.99,Home Grown,2013-08-29 11:39:00,
2013-08-29 12:44:00,63.9,-99.9,-100.00,WSW,240,11.0,-999.0,-999,0.00,,,-99.99,Home Grown,2013-08-29 11:44:00,
2013-08-29 12:49:00,64.2,-99.9,-100.00,WSW,240,12.0,-999.0,-999,0.00,,,-99.99,Home Grown,2013-08-29 11:49:00,
2013-08-29 12:54:00,64.6,-99.9,-100.00,WSW,240,10.0,-999.0,-999,0.00,,,-99.99,Home Grown,2013-08-29 11:54:00,
2013-08-29 12:59:00,64.6,-99.9,-100.00,WSW,240,10.0,-999.0,-999,0.00,,,-99.99,Home Grown,2013-08-29 11:59:00,
2013-08-29 13:04:00,64.6,-99.9,-100.00,WSW,240,9.0,-999.0,-999,0.00,,,-99.99,Home Grown,2013-08-29 12:04:00,
2013-08-29 13:09:00,64.8,-99.9,-100.00,WSW,240,10.0,-999.0,-999,0.00,,,-99.99,Home Grown,2013-08-29 12:09:00,
2013-08-29 13:19:00,65.1,-99.9,-100.00,WSW,240,9.0,-999.0,-999,0.00,,,-99.99,Home Grown,2013-08-29 12:19:00,
2013-08-29 13:24:00,64.8,-99.9,-100.00,WSW,240,10.0,-999.0,-999,0.00,,,-99.99,Home Grown,2013-08-29 12:24:00,
2013-08-29 13:29:00,64.9,-99.9,-100.00,WSW,240,10.0,-999.0,-999,0.00,,,-99.99,Home Grown,2013-08-29 12:29:00,
2013-08-29 13:34:00,65.1,-99.9,-100.00,WSW,240,9.0,-999.0,-999,0.00,,,-99.99,Home Grown,2013-08-29 12:34:00,
2013-08-29 13:39:00,65.1,-99.9,-100.00,WSW,240,9.0,-999.0,-999,0.00,,,-99.99,Home Grown,2013-08-29 12:39:00,
2013-08-29 13:44:00,65.7,-99.9,-100.00,WSW,240,9.0,-999.0,-999,0.00,,,-99.99,Home Grown,2013-08-29 12:44:00,
2013-08-29 13:49:00,65.8,-99.9,-100.00,WSW,240,10.0,-999.0,-999,0.00,,,-99.99,Home Grown,2013-08-29 12:49:00,
2013-08-29 13:54:00,66.0,-99.9,-100.00,WSW,240,8.0,-999.0,-999,0.00,,,-99.99,Home Grown,2013-08-29 12:54:00,
2013-08-29 13:59:00,65.7,-99.9,-100.00,WSW,240,9.0,-999.0,-999,0.00,,,-99.99,Home Grown,2013-08-29 12:59:00,
2013-08-29 14:04:00,65.5,-99.9,-100.00,WSW,240,10.0,-999.0,-999,0.00,,,-99.99,Home Grown,2013-08-29 13:04:00,
2013-08-29 14:09:00,65.5,-99.9,-100.00,WSW,240,8.0,-999.0,-999,0.00,,,-99.99,Home Grown,2013-08-29 13:09:00,
2013-08-29 14:14:00,65.3,-99.9,-100.00,WSW,240,11.0,-999.0,-999,0.00,,,-99.99,Home Grown,2013-08-29 13:14:00,
2013-08-29 14:19:00,65.5,-99.9,-100.00,WSW,240,10.0,-999.0,-999,0.00,,,-99.99,Home Grown,2013-08-29 13:19:00,
2013-08-29 14:24:00,66.0,-99.9,-100.00,WSW,240,11.0,-999.0,-999,0.00,,,-99.99,Home Grown,2013-08-29 13:24:00,
2013-08-29 14:29:00,66.0,-99.9,-100.00,WSW,240,10.0,-999.0,-999,0.00,,,-99.99,Home Grown,2013-08-29 13:29:00,
2013-08-29 14:34:00,65.8,-99.9,-100.00,WSW,240,9.0,-999.0,-999,0.00,,,-99.99,Home Grown,2013-08-29 13:34:00,
2013-08-29 14:39:00,65.5,-99.9,-100.00,WSW,240,8.0,-999.0,-999,0.00,,,-99.99,Home Grown,2013-08-29 13:39:00,
2013-08-29 14:44:00,66.0,-99.9,-100.00,WSW,240,8.0,-999.0,-999,0.00,,,-99.99,Home Grown,2013-08-29 13:44:00,
2013-08-29 14:49:00,66.0,-99.9,-100.00,WSW,240,8.0,-999.0,-999,0.00,,,-99.99,Home Grown,2013-08-29 13:49:00,
2013-08-29 14:54:00,65.8,-99.9,-100.00,WSW,240,8.0,-999.0,-999,0.00,,,-99.99,Home Grown,2013-08-29 13:54:00,
2013-08-29 14:59:00,65.8,-99.9,-100.00,WSW,240,10.0,-999.0,-999,0.00,,,-99.99,Home Grown,2013-08-29 13:59:00,
2013-08-29 15:04:00,66.0,-99.9,-100.00,WSW,240,9.0,-999.0,-999,0.00,,,-99.99,Home Grown,2013-08-29 14:04:00,
2013-08-29 15:09:00,66.4,-99.9,-100.00,WSW,240,10.0,-999.0,-999,0.00,,,-99.99,Home Grown,2013-08-29 14:09:00,
2013-08-29 15:14:00,66.0,-99.9,-100.00,WSW,240,9.0,-999.0,-999,0.00,,,-99.99,Home Grown,2013-08-29 14:14:00,
2013-08-29 15:19:00,65.8,-99.9,-100.00,WSW,240,8.0,-999.0,-999,0.00,,,-99.99,Home Grown,2013-08-29 14:19:00,
2013-08-29 15:24:00,65.8,-99.9,-100.00,WSW,240,10.0,-999.0,-999,0.00,,,-99.99,Home Grown,2013-08-29 14:24:00,
2013-08-29 15:29:00,65.8,-99.9,-100.00,WSW,240,8.0,-999.0,-999,0.00,,,-99.99,Home Grown,2013-08-29 14:29:00,
2013-08-29 15:34:00,66.2,-99.9,-100.00,WSW,240,7.0,-999.0,-999,0.00,,,-99.99,Home Grown,2013-08-29 14:34:00,
2013-08-29 15:39:00,66.4,-99.9,-100.00,WSW,240,10.0,-999.0,-999,0.00,,,-99.99,Home Grown,2013-08-29 14:39:00,
2013-08-29 15:44:00,66.9,-99.9,-100.00,WSW,240,8.0,-999.0,-999,0.00,,,-99.99,Home Grown,2013-08-29 14:44:00,
2013-08-29 15:49:00,66.7,-99.9,-100.00,WSW,240,8.0,-999.0,-999,0.00,,,-99.99,Home Grown,2013-08-29 14:49:00,
2013-08-29 15:54:00,66.6,-99.9,-100.00,WSW,240,8.0,-999.0,-999,0.00,,,-99.99,Home Grown,2013-08-29 14:54:00,
2013-08-29 15:59:00,66.4,-99.9,-100.00,WSW,240,12.0,-999.0,-999,0.00,,,-99.99,Home Grown,2013-08-29 14:59:00,
2013-08-29 16:04:00,66.2,-99.9,-100.00,WSW,240,9.0,-999.0,-999,0.00,,,-99.99,Home Grown,2013-08-29 15:04:00,
2013-08-29 16:09:00,66.0,-99.9,-100.00,WSW,240,10.0,-999.0,-999,0.00,,,-99.99,Home Grown,2013-08-29 15:09:00,
2013-08-29 16:14:00,66.0,-99.9,-100.00,WSW,240,10.0,-999.0,-999,0.00,,,-99.99,Home Grown,2013-08-29 15:14:00,
2013-08-29 16:19:00,66.0,-99.9,-100.00,WSW,240,9.0,-999.0,-999,0.00,,,-99.99,Home Grown,2013-08-29 15:19:00,
2013-08-29 16:24:00,66.2,-99.9,-100.00,WSW,240,9.0,-999.0,-999,0.00,,,-99.99,Home Grown,2013-08-29 15:24:00,
2013-08-29 16:29:00,66.2,-99.9,-100.00,WSW,240,9.0,-999.0,-999,0.00,,,-99.99,Home Grown,2013-08-29 15:29:00,
2013-08-29 16:34:00,66.0,-99.9,-100.00,WSW,240,7.0,-999.0,-999,0.00,,,-99.99,Home Grown,2013-08-29 15:34:00,
2013-08-29 16:39:00,65.8,-99.9,-100.00,WSW,240,9.0,-999.0,-999,0.00,,,-99.99,Home Grown,2013-08-29 15:39:00,
2013-08-29 16:44:00,65.8,-99.9,-100.00,WSW,240,6.0,-999.0,-999,0.00,,,-99.99,Home Grown,2013-08-29 15:44:00,
2013-08-29 16:49:00,65.8,-99.9,-100.00,WSW,240,8.0,-999.0,-999,0.00,,,-99.99,Home Grown,2013-08-29 15:49:00,
2013-08-29 16:54:00,65.8,-99.9,-100.00,WSW,240,9.0,-999.0,-999,0.00,,,-99.99,Home Grown,2013-08-29 15:54:00,
2013-08-29 16:59:00,65.7,-99.9,-100.00,WSW,240,7.0,-999.0,-999,0.00,,,-99.99,Home Grown,2013-08-29 15:59:00,
2013-08-29 17:04:00,65.5,-99.9,-100.00,WSW,240,7.0,-999.0,-999,0.00,,,-99.99,Home Grown,2013-08-29 16:04:00,
2013-08-29 17:09:00,65.5,-99.9,-100.00,WSW,240,7.0,-999.0,-999,0.00,,,-99.99,Home Grown,2013-08-29 16:09:00,
2013-08-29 17:14:00,65.8,-99.9,-100.00,WSW,240,7.0,-999.0,-999,0.00,,,-99.99,Home Grown,2013-08-29 16:14:00,
2013-08-29 17:19:00,65.7,-99.9,-100.00,WSW,240,6.0,-999.0,-999,0.00,,,-99.99,Home Grown,2013-08-29 16:19:00,
2013-08-29 17:24:00,65.5,-99.9,-100.00,WSW,240,5.0,-999.0,-999,0.00,,,-99.99,Home Grown,2013-08-29 16:24:00,
2013-08-29 17:29:00,65.1,-99.9,-100.00,WSW,240,6.0,-999.0,-999,0.00,,,-99.99,Home Grown,2013-08-29 16:29:00,
2013-08-29 17:34:00,64.9,-99.9,-100.00,WSW,240,6.0,-999.0,-999,0.00,,,-99.99,Home Grown,2013-08-29 16:34:00,
2013-08-29 17:39:00,64.8,-99.9,-100.00,WSW,240,6.0,-999.0,-999,0.00,,,-99.99,Home Grown,2013-08-29 16:39:00,
2013-08-29 17:44:00,64.6,-99.9,-100.00,WSW,240,7.0,-999.0,-999,0.00,,,-99.99,Home Grown,2013-08-29 16:44:00,
2013-08-29 17:49:00,64.2,-99.9,-100.00,WSW,240,6.0,-999.0,-999,0.00,,,-99.99,Home Grown,2013-08-29 16:49:00,
2013-08-29 17:54:00,64.0,-99.9,-100.00,WSW,240,6.0,-999.0,-999,0.00,,,-99.99,Home Grown,2013-08-29 16:54:00,
2013-08-29 17:59:00,64.0,-99.9,-100.00,WSW,240,5.0,-999.0,-999,0.00,,,-99.99,Home Grown,2013-08-29 16:59:00,
2013-08-29 18:04:00,63.7,-99.9,-100.00,WSW,240,6.0,-999.0,-999,0.00,,,-99.99,Home Grown,2013-08-29 17:04:00,
2013-08-29 18:09:00,63.7,-99.9,-100.00,WSW,240,6.0,-999.0,-999,0.00,,,-99.99,Home Grown,2013-08-29 17:09:00,
2013-08-29 18:14:00,63.9,-99.9,-100.00,WSW,240,6.0,-999.0,-999,0.00,,,-99.99,Home Grown,2013-08-29 17:14:00,
2013-08-29 18:19:00,63.7,-99.9,-100.00,WSW,240,5.0,-999.0,-999,0.00,,,-99.99,Home Grown,2013-08-29 17:19:00,
2013-08-29 18:24:00,64.0,-99.9,-100.00,WSW,240,6.0,-999.0,-999,0.00,,,-99.99,Home Grown,2013-08-29 17:24:00,
2013-08-29 18:29:00,64.0,-99.9,-100.00,WSW,240,7.0,-999.0,-999,0.00,,,-99.99,Home Grown,2013-08-29 17:29:00,
2013-08-29 18:34:00,64.0,-99.9,-100.00,WSW,240,5.0,-999.0,-999,0.00,,,-99.99,Home Grown,2013-08-29 17:34:00,
2013-08-29 18:39:00,64.0,-99.9,-100.00,WSW,240,6.0,-999.0,-999,0.00,,,-99.99,Home Grown,2013-08-29 17:39:00,
2013-08-29 18:44:00,64.0,-99.9,-100.00,WSW,240,5.0,-999.0,-999,0.00,,,-99.99,Home Grown,2013-08-29 17:44:00,
2013-08-29 18:49:00,63.9,-99.9,-100.00,WSW,240,6.0,-999.0,-999,0.00,,,-99.99,Home Grown,2013-08-29 17:49:00,
2013-08-29 18:54:00,63.7,-99.9,-100.00,WSW,240,7.0,-999.0,-999,0.00,,,-99.99,Home Grown,2013-08-29 17:54:00,
2013-08-29 18:59:00,63.9,-99.9,-100.00,WSW,240,5.0,-999.0,-999,0.00,,,-99.99,Home Grown,2013-08-29 17:59:00,
2013-08-29 19:04:00,63.7,-99.9,-100.00,WSW,240,5.0,-999.0,-999,0.00,,,-99.99,Home Grown,2013-08-29 18:04:00,
2013-08-29 19:09:00,63.7,-99.9,-100.00,WSW,240,4.0,-999.0,-999,0.00,,,-99.99,Home Grown,2013-08-29 18:09:00,
2013-08-29 19:14:00,63.7,-99.9,-100.00,WSW,240,5.0,-999.0,-999,0.00,,,-99.99,Home Grown,2013-08-29 18:14:00,
2013-08-29 19:19:00,63.7,-99.9,-100.00,WSW,240,6.0,-999.0,-999,0.00,,,-99.99,Home Grown,2013-08-29 18:19:00,
2013-08-29 19:24:00,63.5,-99.9,-100.00,WSW,240,5.0,-999.0,-999,0.00,,,-99.99,Home Grown,2013-08-29 18:24:00,
2013-08-29 19:29:00,63.5,-99.9,-100.00,WSW,240,5.0,-999.0,-999,0.00,,,-99.99,Home Grown,2013-08-29 18:29:00,
2013-08-29 19:34:00,63.3,-99.9,-100.00,WSW,240,5.0,-999.0,-999,0.00,,,-99.99,Home Grown,2013-08-29 18:34:00,
2013-08-29 19:39:00,63.3,-99.9,-100.00,WSW,240,5.0,-999.0,-999,0.00,,,-99.99,Home Grown,2013-08-29 18:39:00,
2013-08-29 19:44:00,63.1,-99.9,-100.00,WSW,240,4.0,-999.0,-999,0.00,,,-99.99,Home Grown,2013-08-29 18:44:00,
2013-08-29 19:49:00,63.0,-99.9,-100.00,WSW,240,6.0,-999.0,-999,0.00,,,-99.99,Home Grown,2013-08-29 18:49:00,
2013-08-29 19:54:00,62.8,-99.9,-100.00,WSW,240,6.0,-999.0,-999,0.00,,,-99.99,Home Grown,2013-08-29 18:54:00,
2013-08-29 19:59:00,62.6,-99.9,-100.00,WSW,240,5.0,-999.0,-999,0.00,,,-99.99,Home Grown,2013-08-29 18:59:00,
2013-08-29 20:04:00,62.4,-99.9,-100.00,WSW,240,5.0,-999.0,-999,0.00,,,-99.99,Home Grown,2013-08-29 19:04:00,
2013-08-29 20:09:00,62.4,-99.9,-100.00,WSW,240,5.0,-999.0,-999,0.00,,,-99.99,Home Grown,2013-08-29 19:09:00,
2013-08-29 20:14:00,62.2,-99.9,-100.00,WSW,240,6.0,-999.0,-999,0.00,,,-99.99,Home Grown,2013-08-29 19:14:00,
2013-08-29 20:19:00,62.2,-99.9,-100.00,WSW,240,5.0,-999.0,-999,0.00,,,-99.99,Home Grown,2013-08-29 19:19:00,
2013-08-29 20:24:00,62.1,-99.9,-100.00,WSW,240,5.0,-999.0,-999,0.00,,,-99.99,Home Grown,2013-08-29 19:24:00,
2013-08-29 20:29:00,61.9,-99.9,-100.00,WSW,240,5.0,-999.0,-999,0.00,,,-99.99,Home Grown,2013-08-29 19:29:00,
2013-08-29 20:34:00,61.9,-99.9,-100.00,WSW,240,5.0,-999.0,-999,0.00,,,-99.99,Home Grown,2013-08-29 19:34:00,
2013-08-29 20:39:00,61.7,-99.9,-100.00,WSW,240,6.0,-999.0,-999,0.00,,,-99.99,Home Grown,2013-08-29 19:39:00,
2013-08-29 20:44:00,61.5,-99.9,-100.00,WSW,240,6.0,-999.0,-999,0.00,,,-99.99,Home Grown,2013-08-29 19:44:00,
2013-08-29 20:49:00,61.3,-99.9,-100.00,WSW,240,5.0,-999.0,-999,0.00,,,-99.99,Home Grown,2013-08-29 19:49:00,
2013-08-29 20:54:00,61.2,-99.9,-100.00,WSW,240,6.0,-999.0,-999,0.00,,,-99.99,Home Grown,2013-08-29 19:54:00,
2013-08-29 20:59:00,61.0,-99.9,-100.00,WSW,240,6.0,-999.0,-999,0.00,,,-99.99,Home Grown,2013-08-29 19:59:00,
2013-08-29 21:04:00,61.0,-99.9,-100.00,WSW,240,6.0,-999.0,-999,0.00,,,-99.99,Home Grown,2013-08-29 20:04:00,
2013-08-29 21:09:00,61.0,-99.9,-100.00,WSW,240,6.0,-999.0,-999,0.00,,,-99.99,Home Grown,2013-08-29 20:09:00,
2013-08-29 21:14:00,61.0,-99.9,-100.00,WSW,240,5.0,-999.0,-999,0.00,,,-99.99,Home Grown,2013-08-29 20:14:00,
2013-08-29 21:19:00,61.0,-99.9,-100.00,WSW,240,6.0,-999.0,-999,0.00,,,-99.99,Home Grown,2013-08-29 20:19:00,
2013-08-29 21:24:00,60.8,-99.9,-100.00,WSW,240,6.0,-999.0,-999,0.00,,,-99.99,Home Grown,2013-08-29 20:24:00,
2013-08-29 21:29:00,60.8,-99.9,-100.00,WSW,240,6.0,-999.0,-999,0.00,,,-99.99,Home Grown,2013-08-29 20:29:00,
2013-08-29 21:34:00,60.8,-99.9,-100.00,WSW,240,5.0,-999.0,-999,0.00,,,-99.99,Home Grown,2013-08-29 20:34:00,
2013-08-29 21:39:00,60.6,-99.9,-100.00,WSW,240,6.0,-999.0,-999,0.00,,,-99.99,Home Grown,2013-08-29 20:39:00,
2013-08-29 21:44:00,60.6,-99.9,-100.00,WSW,240,5.0,-999.0,-999,0.00,,,-99.99,Home Grown,2013-08-29 20:44:00,
2013-08-29 21:49:00,60.6,-99.9,-100.00,WSW,240,5.0,-999.0,-999,0.00,,,-99.99,Home Grown,2013-08-29 20:49:00,
2013-08-29 21:54:00,60.4,-99.9,-100.00,WSW,240,5.0,-999.0,-999,0.00,,,-99.99,Home Grown,2013-08-29 20:54:00,
2013-08-29 21:59:00,59.9,-99.9,-100.00,WSW,240,4.0,-999.0,-999,0.00,,,-99.99,Home Grown,2013-08-29 20:59:00,
2013-08-29 22:04:00,59.7,-99.9,-100.00,WSW,240,5.0,-999.0,-999,0.00,,,-99.99,Home Grown,2013-08-29 21:04:00,
2013-08-29 22:09:00,59.5,-99.9,-100.00,WSW,240,5.0,-999.0,-999,0.00,,,-99.99,Home Grown,2013-08-29 21:09:00,
2013-08-29 22:14:00,59.4,-99.9,-100.00,WSW,240,4.0,-999.0,-999,0.00,,,-99.99,Home Grown,2013-08-29 21:14:00,
2013-08-29 22:19:00,59.4,-99.9,-100.00,WSW,240,5.0,-999.0,-999,0.00,,,-99.99,Home Grown,2013-08-29 21:19:00,
2013-08-29 22:24:00,59.2,-99.9,-100.00,WSW,240,4.0,-999.0,-999,0.00,,,-99.99,Home Grown,2013-08-29 21:24:00,
2013-08-29 22:29:00,59.2,-99.9,-100.00,WSW,240,5.0,-999.0,-999,0.00,,,-99.99,Home Grown,2013-08-29 21:29:00,
2013-08-29 22:34:00,59.2,-99.9,-100.00,WSW,240,5.0,-999.0,-999,0.00,,,-99.99,Home Grown,2013-08-29 21:34:00,
2013-08-29 22:39:00,59.2,-99.9,-100.00,WSW,240,5.0,-999.0,-999,0.00,,,-99.99,Home Grown,2013-08-29 21:39:00,
2013-08-29 22:44:00,59.2,-99.9,-100.00,WSW,240,5.0,-999.0,-999,0.00,,,-99.99,Home Grown,2013-08-29 21:44:00,
2013-08-29 22:49:00,59.4,-99.9,-100.00,WSW,240,5.0,-999.0,-999,0.00,,,-99.99,Home Grown,2013-08-29 21:49:00,
2013-08-29 22:54:00,59.4,-99.9,-100.00,WSW,240,6.0,-999.0,-999,0.00,,,-99.99,Home Grown,2013-08-29 21:54:00,
2013-08-29 22:59:00,59.4,-99.9,-100.00,WSW,240,6.0,-999.0,-999,0.00,,,-99.99,Home Grown,2013-08-29 21:59:00,
2013-08-29 23:04:00,59.4,-99.9,-100.00,WSW,240,7.0,-999.0,-999,0.00,,,-99.99,Home Grown,2013-08-29 22:04:00,
2013-08-29 23:09:00,59.4,-99.9,-100.00,WSW,240,7.0,-999.0,-999,0.00,,,-99.99,Home Grown,2013-08-29 22:09:00,
2013-08-29 23:14:00,59.4,-99.9,-100.00,WSW,240,6.0,-999.0,-999,0.00,,,-99.99,Home Grown,2013-08-29 22:14:00,
2013-08-29 23:19:00,59.4,-99.9,-100.00,WSW,240,6.0,-999.0,-999,0.00,,,-99.99,Home Grown,2013-08-29 22:19:00,
2013-08-29 23:24:00,59.4,-99.9,-100.00,WSW,240,6.0,-999.0,-999,0.00,,,-99.99,Home Grown,2013-08-29 22:24:00,
2013-08-29 23:29:00,59.4,-99.9,-100.00,WSW,240,6.0,-999.0,-999,0.00,,,-99.99,Home Grown,2013-08-29 22:29:00,
2013-08-29 23:34:00,59.4,-99.9,-100.00,WSW,240,8.0,-999.0,-999,0.00,,,-99.99,Home Grown,2013-08-29 22:34:00,
2013-08-29 23:39:00,59.4,-99.9,-100.00,WSW,240,7.0,-999.0,-999,0.00,,,-99.99,Home Grown,2013-08-29 22:39:00,
2013-08-29 23:44:00,59.2,-99.9,-100.00,WSW,240,6.0,-999.0,-999,0.00,,,-99.99,Home Grown,2013-08-29 22:44:00,
2013-08-29 23:49:00,59.2,-99.9,-100.00,WSW,240,7.0,-999.0,-999,0.00,,,-99.99,Home Grown,2013-08-29 22:49:00,
2013-08-29 23:54:00,59.2,-99.9,-100.00,WSW,240,6.0,-999.0,-999,0.00,,,-99.99,Home Grown,2013-08-29 22:54:00,
2013-08-29 23:59:00,59.2,-99.9,-100.00,WSW,240,7.0,-999.0,-999,0.00,,,-99.99,Home Grown,2013-08-29 22:59:00,